Home > Weather > Provo > Past weeks

Flag for USA Past Weather in Provo, Utah, USA — Yesterday and Last 2 Weeks

Now
70 °F

Clear.


Feels Like: 70 °F
Forecast: 60 / 87 °F
Wind: 12 mph from Southeast

Location: Provo Municipal

Current Time: Jul 1, 2016 at 11:48:20 PM

Latest Report: Jul 1, 2016 at 11:35 PM


Visibility: 10 mi

Pressure: 30.06 "Hg (25.59 "Hg at 1386m altitude)

Humidity: 46%

Dew Point: 48 °F

Location of ProvoLocation

Past Weather in Provo — Graph

°F

Provo Temperature Yesterday

Maximum temperature yesterday: 84 °F (at 1:50 PM)
Minimum temperature yesterday: 61 °F (at 4:35 AM)
Average temperature yesterday: 71 °F

High & Low Weather Summary for the Past Weeks

 TemperatureHumidityPressure
High100 °F (Jun 20, 5:49 PM)72% (Jun 17, 3:35 AM)30.30 "Hg (Jun 17, 3:35 AM)
Low48 °F (Jun 17, 6:15 AM)10% (Jun 18, 6:52 PM)29.92 "Hg (Jun 23, 6:47 PM)
Average71 °F39%30.11 "Hg
* Reported Jun 16 10:15 PM — Jul 1 10:35 PM, Provo, Weather by CustomWeather, © 2016

Note: Actual official high and low records may vary slightly from our data, if they occured in-between our weather recording intervals... More about our weather records

Advertising

Provo Weather History for the Previous 24 Hours

Scroll right to see more
 ConditionsComfort  
Time TempWeatherWind HumidityBarometerVisibility
10:35 PM
Fri, Jul 1
72 °FClear.13 mph44%30.05 "Hg10 mi
10:15 PM73 °FClear.10 mph41%30.05 "Hg10 mi
9:55 PM73 °FSunny.13 mph41%30.04 "Hg10 mi
9:35 PM73 °FSunny.16 mph41%30.02 "Hg10 mi
9:15 PM73 °FSunny.16 mph41%30.01 "Hg10 mi
8:55 PM75 °FSunny.15 mph39%30.01 "Hg10 mi
7:47 PM79 °FScattered clouds.17 mph37%30.01 "Hg10 mi
6:47 PM81 °FScattered clouds.17 mph34%30.00 "Hg10 mi
3:47 PM81 °FPartly sunny.5 mph32%30.04 "Hg10 mi
2:59 PM82 °FBroken clouds.5 mph35%30.05 "Hg10 mi
1:47 PM81 °FBroken clouds.5 mph37%30.08 "Hg10 mi
12:47 PM79 °FBroken clouds.5 mph39%30.10 "Hg10 mi
11:55 AM79 °FBroken clouds.5 mph39%30.10 "Hg10 mi
10:47 AM75 °FScattered clouds.5 mph47%30.12 "Hg10 mi
9:49 AM73 °FScattered clouds.5 mph50%30.12 "Hg10 mi
8:50 AM72 °FScattered clouds.7 mph50%30.12 "Hg10 mi
7:51 AM66 °FScattered clouds.No wind60%30.11 "Hg10 mi
6:49 AM61 °FPassing clouds.No wind63%30.10 "Hg10 mi
6:35 AM61 °FClear.5 mph63%30.09 "Hg10 mi
6:15 AM63 °FClear.3 mph59%30.09 "Hg9 mi
5:55 AM63 °FClear.No wind64%30.09 "Hg10 mi
5:35 AM61 °FClear.3 mph72%30.09 "Hg7 mi
5:15 AM63 °FClear.No wind68%30.09 "Hg10 mi
4:55 AM63 °FClear.No wind68%30.09 "Hg10 mi
4:35 AM63 °FClear.No wind64%30.09 "Hg10 mi
4:15 AM63 °FClear.3 mph64%30.09 "Hg10 mi
3:55 AM63 °FPassing clouds.No wind64%30.08 "Hg10 mi
3:35 AM64 °FClear.6 mph60%30.09 "Hg10 mi
3:15 AM64 °FClear.9 mph56%30.09 "Hg10 mi
2:55 AM66 °FClear.7 mph56%30.09 "Hg10 mi
2:35 AM66 °FClear.5 mph64%30.09 "Hg10 mi
2:15 AM70 °FClear.6 mph60%30.09 "Hg10 mi
1:55 AM70 °FClear.6 mph60%30.09 "Hg10 mi
1:35 AM70 °FClear.7 mph57%30.10 "Hg10 mi
1:15 AM70 °FClear.No wind46%30.10 "Hg10 mi
12:55 AM70 °FClear.No wind46%30.09 "Hg10 mi
12:35 AM72 °FClear.6 mph44%30.09 "Hg10 mi
12:15 AM72 °FClear.7 mph44%30.10 "Hg10 mi
11:55 PM
Thu, Jun 30
72 °FClear.9 mph44%30.10 "Hg10 mi
11:35 PM72 °FClear.10 mph44%30.11 "Hg10 mi
11:15 PM73 °FClear.9 mph41%30.11 "Hg10 mi
Weather by CustomWeather, © 2016

See weather overviewHow to use our weather pages